Skip Page Navigation
NASA JPL Caltech
NASA Logo - Jet Propulsion Laboratory + View the NASA Portal
+ Near-Earth Object (NEO) Program
Search JPL
JPL Home Earth Solar System Stars & Galaxies Technology
JPL Solar System Dynamics
BODIES ORBITS EPHEMERIDES TOOLS PHYSICAL DATA DISCOVERY FAQ SITE MAP
JPL Small-Body Database Browser
Search: [ help ]  
(2002 WQ4)
Classification: Apollo [NEO, PHA]          SPK-ID: 3143115
Ephemeris | Orbit Diagram | Orbital Elements | Physical Parameters | Close-Approach Data ]

[ hide orbit diagram ]
Orbit Diagram
Note: Make sure you have Java enabled on your browser to see the applet. This applet is provided as a 3D orbit visualization tool. The applet was implemented using 2-body methods, and hence should not be used for determining accurate long-term trajectories (over several years or decades) or planetary encounter circumstances. For accurate long-term ephemerides, please instead use our Horizons system.
Orbit Viewer

Additional Notes: the orbits shown in the applet are color coded. The planets are white lines, and the asteroid/comet is a blue line. The bright white line indicates the portion of the orbit that is above the ecliptic plane, and the darker portion is below the ecliptic plane. Likewise for the asteroid/comet orbit, the light blue indicates the portion above the ecliptic plane, and the dark blue the portion below the ecliptic plane.

Orbit Viewer applet originally written and kindly provided by Osamu Ajiki (AstroArts), and further modified by Ron Baalke (JPL).


Orbital Elements at Epoch 2456400.5 (2013-Apr-18.0) TDB
Reference: JPL 21 (heliocentric ecliptic J2000)
 Element Value Uncertainty (1-sigma)   Units 
e .5551074693210729 7.5621e-08  
a 1.958146373707881 1.0791e-08 AU
q .8711646956386635 1.4721e-07 AU
i 3.944838890530848 2.7732e-05 deg
node 267.1551477255709 0.00025809 deg
peri 244.346162521786 0.00025372 deg
M 250.8268544210475 1.8398e-05 deg
tp 2456704.014524534743
(2014-Feb-15.51452453)
5.1087e-05 JED
period 1000.843460661196
2.74
8.2733e-06
2.265e-08
d
yr
n .3596966100594493 2.9734e-09 deg/d
Q 3.0451280517771 1.6781e-08 AU
  Orbit Determination Parameters
   # obs. used (total)      82  
   data-arc span      21855 days (59.84 yr)  
   first obs. used      1950-12-11  
   last obs. used      2010-10-12  
   planetary ephem.      DE405  
   SB-pert. ephem.      SB405-CPV-2  
   condition code      0  
   fit RMS      .61564  
   data source      ORB  
   producer      Otto Matic  
   solution date      2013-May-29 01:15:51  

Additional Information
 Earth MOID = .0194811 AU 
 T_jup = 3.675 
[ show covariance matrix ]

Ephemeris | Orbit Diagram | Orbital Elements | Physical Parameters | Close-Approach Data ]

Physical Parameter Table
Parameter Symbol Value Units Sigma Reference Notes
absolute magnitude H 19.498 mag .69433 21 autocmod 2.5c

[ show close-approach data ]
Alternate Designations
 2002 WQ4 = 1950 XB1 
Ephemeris | Orbit Diagram | Orbital Elements | Physical Parameters | Close-Approach Data ]
ABOUT SSD CREDITS/AWARDS PRIVACY/COPYRIGHT GLOSSARY LINKS
FirstGov 2013-Jun-19 01:23 UT
(server date/time)  
NASA Home Page
Site Manager:   Donald K. Yeomans
Webmaster  Alan B. Chamberlin